Darstellungsparameter: Aktuell verwendete Einstellungen:
Skalierung der Graphiken ... ?
xyx+y,   Skalierungsfaktor:      Skalierung: Modus: x, Faktor: 1
Darstellungszeitraum ... ?
Vom - - bis: - -   Zeitraum: 10.05.2010 - 16.05.2010
Min/Max/Avg-Anzeige ... ?
Zeige MMA aktuell
Zeige MMA Monat
Zeige MMA alles
Zeige --A aktuell
Zeige --A Monat
Zeige --A alles
Keine MMA-Anzeige
MMA:
Minimum Maximum Average (ber die Originaldaten)
MMA-Basis: 23.02.2003 - 17.05.2020
Quicknavigation für Darstellung... ?
Tage:      1T, 2T, 3T, 5T -1T -2T -3T -5T +1T +2T +3T +5T
Wochen: 1W, 2W, 3W -1W -2W -3W +1W +2W +3W
Monate: 1M, 3M, 6M -1M -3M -6M +1M +3M +6M
Jahre:    1J, 3J, 5J, 10J -1J -3J -5J -10J +1J +3J +5J +10J
Nutze für die Darstellung ... ?
Originaldaten oder Mittelwerte auf ...
Stundenbasis Tagesbasis Wochenbasis
Monatsbasis Jahresbasis      Datenbasis: Original-Daten
Darstellen als:
Statistik (Auto) Statistik J:M      Darstellung:
Zur Graphik,    zurück zur Übersicht aller Sensoren.
 
Tabellarische Datenbersicht: ?
 
Sensor: Nr:Datum:Temp:Abs-Feuchte:Windchill:Wind:
Aussen-T/F 1 10-05-2010 00:02:05 10.4 C 7.13 g/m*3 10.4 C 0 km/h
2 10-05-2010 00:14:05 10.5 C 7.18 g/m*3 10.5 C 0 km/h
3 10-05-2010 00:26:05 10.3 C 7.09 g/m*3 10.3 C 0 km/h
4 10-05-2010 00:38:05 10.1 C 7.09 g/m*3 10.1 C 0 km/h
5 10-05-2010 00:50:05 9.8 C 7.24 g/m*3 9.8 C 0 km/h
6 10-05-2010 01:02:05 9.8 C 7.24 g/m*3 9.8 C 0 km/h
7 10-05-2010 01:14:05 9.8 C 7.33 g/m*3 9.8 C 0 km/h
8 10-05-2010 01:26:05 9.9 C 7.38 g/m*3 9.9 C 0 km/h
9 10-05-2010 01:38:05 10 C 7.24 g/m*3 10 C 0 km/h
10 10-05-2010 01:50:05 9.8 C 7.24 g/m*3 9.8 C 0 km/h
11 10-05-2010 02:02:05 9.7 C 7.19 g/m*3 9.7 C 0 km/h
12 10-05-2010 02:14:05 9.5 C 7.19 g/m*3 9.5 C 0 km/h
13 10-05-2010 02:26:05 9.4 C 7.24 g/m*3 9.4 C 0 km/h
14 10-05-2010 02:38:05 9.4 C 7.24 g/m*3 9.4 C 0 km/h
15 10-05-2010 02:50:05 9.4 C 7.33 g/m*3 9.4 C 0 km/h
16 10-05-2010 03:02:05 9.2 C 7.23 g/m*3 9.2 C 0 km/h
17 10-05-2010 03:14:05 9 C 7.14 g/m*3 9 C 0 km/h
18 10-05-2010 03:26:05 8.8 C 7.14 g/m*3 8.8 C 0 km/h
19 10-05-2010 03:38:05 8.7 C 7.18 g/m*3 8.7 C 0 km/h
20 10-05-2010 03:50:06 8.7 C 7.26 g/m*3 8.7 C 0 km/h
21 10-05-2010 04:02:06 8.6 C 7.22 g/m*3 8.6 C 0 km/h
22 10-05-2010 04:14:06 8.6 C 7.22 g/m*3 8.6 C 0 km/h
23 10-05-2010 04:26:06 8.6 C 7.3 g/m*3 8.6 C 0 km/h
24 10-05-2010 04:38:06 8.6 C 7.3 g/m*3 8.6 C 0 km/h
25 10-05-2010 04:50:06 8.7 C 7.26 g/m*3 8.7 C 0 km/h
Sensor: Nr:Datum:Temp:Abs-Feuchte:Windchill:Wind:
Aussen-T/F 26 10-05-2010 05:02:06 8.6 C 7.22 g/m*3 8.6 C 0 km/h
27 10-05-2010 05:14:06 8.6 C 7.22 g/m*3 8.6 C 0 km/h
28 10-05-2010 05:26:06 8.6 C 7.3 g/m*3 8.6 C 0 km/h
29 10-05-2010 05:38:06 8.7 C 7.35 g/m*3 8.7 C 0 km/h
30 10-05-2010 05:50:06 8.8 C 7.31 g/m*3 8.8 C 0 km/h
31 10-05-2010 06:02:06 8.7 C 7.26 g/m*3 8.7 C 0 km/h
32 10-05-2010 06:14:06 8.7 C 7.26 g/m*3 8.7 C 0 km/h
33 10-05-2010 06:26:06 8.8 C 7.31 g/m*3 8.8 C 0 km/h
34 10-05-2010 06:38:04 8.9 C 7.36 g/m*3 8.9 C 0 km/h
35 10-05-2010 06:50:02 9 C 7.32 g/m*3 9 C 0 km/h
36 10-05-2010 07:02:02 9.1 C 7.36 g/m*3 9.1 C 0 km/h
37 10-05-2010 07:14:02 9.4 C 7.51 g/m*3 9.4 C 0 km/h
38 10-05-2010 07:26:01 9.6 C 7.6 g/m*3 9.6 C 0 km/h
39 10-05-2010 07:38:02 9.8 C 7.7 g/m*3 9.8 C 0 km/h
40 10-05-2010 07:50:02 10.2 C 7.71 g/m*3 10.2 C 0 km/h
41 10-05-2010 08:02:02 10.5 C 7.76 g/m*3 10.5 C 0 km/h
42 10-05-2010 08:14:02 10.6 C 7.71 g/m*3 10.6 C 0 km/h
43 10-05-2010 08:26:02 10.7 C 7.66 g/m*3 10.7 C 0 km/h
44 10-05-2010 08:38:02 10.7 C 7.46 g/m*3 10.7 C 0 km/h
45 10-05-2010 08:50:02 10.7 C 7.37 g/m*3 10.7 C 0 km/h
46 10-05-2010 09:02:02 10.8 C 7.41 g/m*3 10.8 C 0 km/h
47 10-05-2010 09:14:03 10.8 C 7.22 g/m*3 10.8 C 0 km/h
48 10-05-2010 09:26:02 10.7 C 7.27 g/m*3 10.7 C 0 km/h
49 10-05-2010 09:38:02 11 C 7.21 g/m*3 11 C 0 km/h
50 10-05-2010 09:50:02 11.1 C 7.25 g/m*3 11.1 C 0 km/h
Sensor: Nr:Datum:Temp:Abs-Feuchte:Windchill:Wind:
Aussen-T/F 51 10-05-2010 10:02:02 11.1 C 7.15 g/m*3 11.1 C 0 km/h
52 10-05-2010 10:14:02 11.4 C 7.08 g/m*3 11.4 C 0 km/h
53 10-05-2010 10:26:03 11.2 C 7.1 g/m*3 11.2 C 0 km/h
54 10-05-2010 10:38:02 11.6 C 7.17 g/m*3 11.6 C 0 km/h
55 10-05-2010 10:50:02 11.4 C 6.98 g/m*3 11.4 C 0 km/h
56 10-05-2010 11:02:02 11.5 C 7.13 g/m*3 11.5 C 0 km/h
57 10-05-2010 11:14:02 11.5 C 7.02 g/m*3 11.5 C 0 km/h
58 10-05-2010 11:26:02 11.5 C 7.02 g/m*3 11.5 C 0 km/h
59 10-05-2010 11:38:02 11.3 C 7.04 g/m*3 11.3 C 0 km/h
60 10-05-2010 11:50:02 11.7 C 7.22 g/m*3 11.7 C 0 km/h
61 10-05-2010 12:02:03 11.7 C 7.11 g/m*3 11.7 C 0 km/h
62 10-05-2010 12:14:03 11.6 C 6.96 g/m*3 11.6 C 0 km/h
63 10-05-2010 12:26:02 12.7 C 7.01 g/m*3 12.7 C 0 km/h
64 10-05-2010 12:38:03 12.9 C 6.76 g/m*3 12.9 C 0 km/h
65 10-05-2010 12:50:02 14.1 C 6.8 g/m*3 14.1 C 0 km/h
66 10-05-2010 13:02:02 13.5 C 6.43 g/m*3 13.5 C 0 km/h
67 10-05-2010 13:14:02 13.5 C 6.43 g/m*3 13.5 C 0 km/h
68 10-05-2010 13:26:01 14.7 C 6.17 g/m*3 14.7 C 0 km/h
69 10-05-2010 13:38:02 15.3 C 6.4 g/m*3 15.3 C 0 km/h
70 10-05-2010 13:50:02 15.4 C 6.18 g/m*3 15.4 C 0 km/h
71 10-05-2010 14:02:02 15.3 C 6.01 g/m*3 15.3 C 0 km/h
72 10-05-2010 14:14:02 15.5 C 6.08 g/m*3 15.5 C 0 km/h
73 10-05-2010 14:26:02 14.8 C 5.95 g/m*3 14.8 C 0 km/h
74 10-05-2010 14:38:02 14.7 C 5.92 g/m*3 14.7 C 0 km/h
75 10-05-2010 14:50:02 14.7 C 5.92 g/m*3 14.7 C 0 km/h
Sensor: Nr:Datum:Temp:Abs-Feuchte:Windchill:Wind:
Aussen-T/F 76 10-05-2010 15:02:02 15 C 5.77 g/m*3 15 C 0 km/h
77 10-05-2010 15:14:02 15.4 C 5.78 g/m*3 15.4 C 0 km/h
78 10-05-2010 15:26:02 15.1 C 5.93 g/m*3 15.1 C 0 km/h
79 10-05-2010 15:38:02 15.3 C 5.62 g/m*3 15.3 C 0 km/h
80 10-05-2010 15:50:02 14.7 C 5.79 g/m*3 14.7 C 0 km/h
81 10-05-2010 16:02:02 15.2 C 5.84 g/m*3 15.2 C 0 km/h
82 10-05-2010 16:14:02 15.8 C 5.79 g/m*3 15.8 C 0 km/h
83 10-05-2010 16:26:02 15.7 C 5.49 g/m*3 15.7 C 0 km/h
84 10-05-2010 16:38:02 16.2 C 5.52 g/m*3 16.2 C 0 km/h
85 10-05-2010 16:50:02 16.3 C 5.13 g/m*3 16.3 C 0 km/h
86 10-05-2010 17:02:02 15.5 C 5.42 g/m*3 15.5 C 0 km/h
87 10-05-2010 17:14:02 15.6 C 5.45 g/m*3 15.6 C 0 km/h
88 10-05-2010 17:26:02 16 C 5.31 g/m*3 16 C 0 km/h
89 10-05-2010 17:38:02 16 C 5.31 g/m*3 16 C 0 km/h
90 10-05-2010 17:50:01 15.8 C 5.38 g/m*3 15.8 C 0 km/h
91 10-05-2010 18:02:02 16.4 C 5.02 g/m*3 16.4 C 0 km/h
92 10-05-2010 18:14:02 17.3 C 5.01 g/m*3 17.3 C 0 km/h
93 10-05-2010 18:26:02 17.6 C 5.1 g/m*3 17.6 C 0 km/h
94 10-05-2010 18:38:01 17.1 C 4.66 g/m*3 17.1 C 0 km/h
95 10-05-2010 18:50:02 15.8 C 4.71 g/m*3 15.8 C 0 km/h
96 10-05-2010 19:02:01 15.4 C 4.73 g/m*3 15.4 C 0 km/h
97 10-05-2010 19:14:01 15.6 C 4.92 g/m*3 15.6 C 0 km/h
98 10-05-2010 19:26:02 14.9 C 4.97 g/m*3 14.9 C 0 km/h
99 10-05-2010 19:38:01 14.7 C 5.04 g/m*3 14.7 C 0 km/h
100 10-05-2010 19:50:02 14.5 C 5.1 g/m*3 14.5 C 0 km/h
Sensor: Nr:Datum:Temp:Abs-Feuchte:Windchill:Wind:
Aussen-T/F 101 10-05-2010 20:02:01 14.5 C 4.97 g/m*3 14.5 C 0 km/h
102 10-05-2010 20:14:01 14.5 C 4.97 g/m*3 14.5 C 0 km/h
103 10-05-2010 20:26:02 14.3 C 5.04 g/m*3 14.3 C 0 km/h
104 10-05-2010 20:38:01 13.7 C 5.09 g/m*3 13.7 C 0 km/h
105 10-05-2010 20:50:02 13.1 C 5.14 g/m*3 13.1 C 0 km/h
106 10-05-2010 21:02:02 12.8 C 5.38 g/m*3 12.8 C 0 km/h
107 10-05-2010 21:14:02 12.3 C 5.43 g/m*3 12.3 C 0 km/h
108 10-05-2010 21:26:02 11.9 C 5.51 g/m*3 11.9 C 0 km/h
109 10-05-2010 21:38:02 11.6 C 5.4 g/m*3 11.6 C 0 km/h
110 10-05-2010 21:50:02 11.5 C 5.58 g/m*3 11.5 C 0 km/h
111 10-05-2010 22:02:02 11.5 C 5.68 g/m*3 11.5 C 0 km/h
112 10-05-2010 22:14:02 11.5 C 5.58 g/m*3 11.5 C 0 km/h
113 10-05-2010 22:27:04 11.2 C 5.57 g/m*3 11.2 C 0 km/h
114 10-05-2010 22:39:04 11.1 C 5.54 g/m*3 11.1 C 0 km/h
115 10-05-2010 22:51:04 11.8 C 5.79 g/m*3 11.8 C 0 km/h
116 10-05-2010 23:03:04 11.6 C 5.92 g/m*3 11.6 C 0 km/h
117 10-05-2010 23:15:05 11.2 C 5.68 g/m*3 11.2 C 0 km/h
118 10-05-2010 23:27:05 11.3 C 5.81 g/m*3 11.3 C 0 km/h
119 10-05-2010 23:39:05 11.4 C 5.85 g/m*3 11.4 C 0 km/h
120 10-05-2010 23:51:05 11.2 C 5.78 g/m*3 11.2 C 0 km/h
121 11-05-2010 00:03:05 11 C 5.71 g/m*3 11 C 0 km/h
122 11-05-2010 00:15:05 11.1 C 5.74 g/m*3 11.1 C 0 km/h
123 11-05-2010 00:27:05 10.7 C 5.7 g/m*3 10.7 C 0 km/h
124 11-05-2010 00:39:05 10.8 C 5.83 g/m*3 10.8 C 0 km/h
125 11-05-2010 00:51:05 10.8 C 5.83 g/m*3 10.8 C 0 km/h
Sensor: Nr:Datum:Temp:Abs-Feuchte:Windchill:Wind:
Aussen-T/F 126 11-05-2010 01:03:05 10.4 C 5.88 g/m*3 10.4 C 0 km/h
127 11-05-2010 01:15:05 10.5 C 5.82 g/m*3 10.5 C 0 km/h
128 11-05-2010 01:27:05 10.5 C 5.92 g/m*3 10.5 C 0 km/h
129 11-05-2010 01:39:05 10.4 C 5.98 g/m*3 10.4 C 0 km/h
130 11-05-2010 01:51:05 10.3 C 6.03 g/m*3 10.3 C 0 km/h
131 11-05-2010 02:03:05 10.1 C 5.96 g/m*3 10.1 C 0 km/h
132 11-05-2010 02:15:05 10 C 6.01 g/m*3 10 C 0 km/h
133 11-05-2010 02:27:05 10.1 C 6.05 g/m*3 10.1 C 0 km/h
134 11-05-2010 02:39:05 10.1 C 6.05 g/m*3 10.1 C 0 km/h
135 11-05-2010 02:51:05 10.2 C 6.09 g/m*3 10.2 C 0 km/h
136 11-05-2010 03:03:05 10 C 6.11 g/m*3 10 C 0 km/h
137 11-05-2010 03:15:05 9.7 C 5.99 g/m*3 9.7 C 0 km/h
138 11-05-2010 03:27:05 9.9 C 6.07 g/m*3 9.9 C 0 km/h
139 11-05-2010 03:39:06 9.7 C 6.27 g/m*3 9.7 C 0 km/h
140 11-05-2010 03:51:06 9.6 C 6.32 g/m*3 9.6 C 0 km/h
141 11-05-2010 04:03:06 9.7 C 6.45 g/m*3 9.7 C 0 km/h
142 11-05-2010 04:15:06 9.5 C 6.1 g/m*3 9.5 C 0 km/h
143 11-05-2010 04:27:06 9.4 C 6.06 g/m*3 9.4 C 0 km/h
144 11-05-2010 04:39:06 9.3 C 6.02 g/m*3 9.3 C 0 km/h
145 11-05-2010 04:51:06 9.4 C 6.15 g/m*3 9.4 C 0 km/h
146 11-05-2010 05:03:06 9.4 C 6.15 g/m*3 9.4 C 0 km/h
147 11-05-2010 05:15:06 9.3 C 6.11 g/m*3 9.3 C 0 km/h
148 11-05-2010 05:27:06 9.5 C 6.19 g/m*3 9.5 C 0 km/h
149 11-05-2010 05:39:06 9.4 C 6.15 g/m*3 9.4 C 0 km/h
150 11-05-2010 05:51:06 9.3 C 6.2 g/m*3 9.3 C 0 km/h
Sensor: Nr:Datum:Temp:Abs-Feuchte:Windchill:Wind:
Aussen-T/F 151 11-05-2010 06:03:06 9.4 C 6.24 g/m*3 9.4 C 0 km/h
152 11-05-2010 06:15:06 9.3 C 6.11 g/m*3 9.3 C 0 km/h
153 11-05-2010 06:27:06 9.3 C 6.2 g/m*3 9.3 C 0 km/h
154 11-05-2010 06:39:06 9.1 C 6.12 g/m*3 9.1 C 0 km/h
155 11-05-2010 06:51:02 9.1 C 6.12 g/m*3 9.1 C 0 km/h
156 11-05-2010 07:03:01 9.3 C 6.29 g/m*3 9.3 C 0 km/h
157 11-05-2010 07:15:02 9.5 C 6.37 g/m*3 9.5 C 0 km/h
158 11-05-2010 07:27:02 9.6 C 6.32 g/m*3 9.6 C 0 km/h
159 11-05-2010 07:39:02 9.7 C 6.27 g/m*3 9.7 C 0 km/h
160 11-05-2010 07:51:01 9.9 C 6.35 g/m*3 9.9 C 0 km/h
161 11-05-2010 08:03:02 10.1 C 6.24 g/m*3 10.1 C 0 km/h
162 11-05-2010 08:15:01 10.5 C 6.3 g/m*3 10.5 C 0 km/h
163 11-05-2010 08:27:01 10.7 C 6.19 g/m*3 10.7 C 0 km/h
164 11-05-2010 08:39:01 11.2 C 6.28 g/m*3 11.2 C 0 km/h
165 11-05-2010 08:51:01 12 C 6.29 g/m*3 12 C 0 km/h
166 11-05-2010 09:03:02 11.7 C 6.07 g/m*3 11.7 C 0 km/h
167 11-05-2010 09:15:01 11.7 C 6.07 g/m*3 11.7 C 0 km/h
168 11-05-2010 09:27:01 11.9 C 6.14 g/m*3 11.9 C 0 km/h
169 11-05-2010 09:39:02 12.8 C 6.05 g/m*3 12.8 C 0 km/h
170 11-05-2010 09:51:01 12.7 C 5.79 g/m*3 12.7 C 0 km/h
171 11-05-2010 10:03:02 12.8 C 6.16 g/m*3 12.8 C 0 km/h
172 11-05-2010 10:15:02 13 C 6.01 g/m*3 13 C 0 km/h
173 11-05-2010 10:27:02 13 C 5.9 g/m*3 13 C 0 km/h
174 11-05-2010 10:39:01 12.3 C 5.97 g/m*3 12.3 C 0 km/h
175 11-05-2010 10:51:01 11.8 C 6.21 g/m*3 11.8 C 0 km/h
Sensor: Nr:Datum:Temp:Abs-Feuchte:Windchill:Wind:
Aussen-T/F 176 11-05-2010 11:03:01 12 C 6.07 g/m*3 12 C 0 km/h
177 11-05-2010 11:15:02 12 C 6.07 g/m*3 12 C 0 km/h
178 11-05-2010 11:27:02 12 C 6.18 g/m*3 12 C 0 km/h
179 11-05-2010 11:39:02 12.5 C 6.38 g/m*3 12.5 C 0 km/h
180 11-05-2010 11:51:02 14.1 C 6.19 g/m*3 14.1 C 0 km/h
181 11-05-2010 12:03:02 14.1 C 5.95 g/m*3 14.1 C 0 km/h
182 11-05-2010 12:15:02 13.7 C 6.28 g/m*3 13.7 C 0 km/h
183 11-05-2010 12:27:02 14.8 C 6.33 g/m*3 14.8 C 0 km/h
184 11-05-2010 12:39:01 14.1 C 5.95 g/m*3 14.1 C 0 km/h
185 11-05-2010 12:51:02 14.3 C 6.27 g/m*3 14.3 C 0 km/h
186 11-05-2010 13:03:01 13.4 C 6.16 g/m*3 13.4 C 0 km/h
187 11-05-2010 13:15:01 13.7 C 6.39 g/m*3 13.7 C 0 km/h
188 11-05-2010 13:27:01 14.2 C 6.23 g/m*3 14.2 C 0 km/h
189 11-05-2010 13:39:01 14.1 C 6.19 g/m*3 14.1 C 0 km/h
190 11-05-2010 13:51:02 13.3 C 6.35 g/m*3 13.3 C 0 km/h
191 11-05-2010 14:03:01 14.1 C 6.43 g/m*3 14.1 C 0 km/h
192 11-05-2010 14:15:01 14 C 6.27 g/m*3 14 C 0 km/h
193 11-05-2010 14:27:01 14.1 C 6.43 g/m*3 14.1 C 0 km/h
194 11-05-2010 14:39:02 14 C 6.39 g/m*3 14 C 0 km/h
195 11-05-2010 14:51:02 14 C 6.51 g/m*3 14 C 0 km/h
196 11-05-2010 15:03:02 14.4 C 6.55 g/m*3 14.4 C 0 km/h
197 11-05-2010 15:15:02 14.1 C 6.31 g/m*3 14.1 C 0 km/h
198 11-05-2010 15:27:02 14.7 C 6.55 g/m*3 14.7 C 0 km/h
199 11-05-2010 15:39:02 14.5 C 6.34 g/m*3 14.5 C 0 km/h
200 11-05-2010 15:51:02 14.3 C 6.39 g/m*3 14.3 C 0 km/h
Sensor: Nr:Datum:Temp:Abs-Feuchte:Windchill:Wind:
Aussen-T/F 201 11-05-2010 16:03:03 14.3 C 6.51 g/m*3 14.3 C 0 km/h
202 11-05-2010 16:15:02 14.8 C 6.71 g/m*3 14.8 C 0 km/h
203 11-05-2010 16:27:02 15.6 C 6.65 g/m*3 15.6 C 0 km/h
204 11-05-2010 16:39:03 15.9 C 6.5 g/m*3 15.9 C 0 km/h
205 11-05-2010 16:51:01 15.6 C 6.52 g/m*3 15.6 C 0 km/h
206 11-05-2010 17:03:02 14.9 C 6.75 g/m*3 14.9 C 0 km/h
207 11-05-2010 17:15:01 15.1 C 6.58 g/m*3 15.1 C 0 km/h
208 11-05-2010 17:27:01 14.7 C 6.8 g/m*3 14.7 C 0 km/h
209 11-05-2010 17:39:02 14.8 C 6.71 g/m*3 14.8 C 0 km/h
210 11-05-2010 17:51:01 14.7 C 6.8 g/m*3 14.7 C 0 km/h
211 11-05-2010 18:03:02 14.5 C 6.96 g/m*3 14.5 C 0 km/h
212 11-05-2010 18:15:02 13.9 C 7.07 g/m*3 13.9 C 0 km/h
213 11-05-2010 18:27:02 12.5 C 7.48 g/m*3 12.5 C 0 km/h
214 11-05-2010 18:39:02 11.9 C 8.05 g/m*3 11.9 C 0 km/h
215 11-05-2010 18:51:01 11.6 C 8.21 g/m*3 11.6 C 0 km/h
216 11-05-2010 19:03:02 11.3 C 8.16 g/m*3 11.3 C 0 km/h
217 11-05-2010 19:15:02 11.1 C 8.36 g/m*3 11.1 C 0 km/h
218 11-05-2010 19:27:02 10.9 C 8.36 g/m*3 10.9 C 0 km/h
219 11-05-2010 19:39:02 10.8 C 8.3 g/m*3 10.8 C 0 km/h
220 11-05-2010 19:51:01 10.6 C 8.39 g/m*3 10.6 C 0 km/h
221 11-05-2010 20:03:02 10.5 C 8.44 g/m*3 10.5 C 0 km/h
222 11-05-2010 20:15:02 10.2 C 8.37 g/m*3 10.2 C 0 km/h
223 11-05-2010 20:27:02 10.1 C 8.42 g/m*3 10.1 C 0 km/h
224 11-05-2010 20:39:02 10 C 8.46 g/m*3 10 C 0 km/h
225 11-05-2010 20:51:02 9.8 C 8.54 g/m*3 9.8 C 0 km/h
Sensor: Nr:Datum:Temp:Abs-Feuchte:Windchill:Wind:
Aussen-T/F 226 11-05-2010 21:03:01 9.8 C 8.54 g/m*3 9.8 C 0 km/h
227 11-05-2010 21:15:02 9.9 C 8.59 g/m*3 9.9 C 0 km/h
228 11-05-2010 21:27:03 10 C 8.64 g/m*3 10 C 0 km/h
229 11-05-2010 21:39:01 9.8 C 8.63 g/m*3 9.8 C 0 km/h
230 11-05-2010 21:51:02 9.8 C 8.63 g/m*3 9.8 C 0 km/h
231 11-05-2010 22:03:02 9.7 C 8.57 g/m*3 9.7 C 0 km/h
232 11-05-2010 22:15:01 9.6 C 8.52 g/m*3 9.6 C 0 km/h
233 11-05-2010 22:27:01 9.8 C 8.72 g/m*3 9.8 C 0 km/h
234 11-05-2010 22:40:03 9.6 C 8.61 g/m*3 9.6 C 0 km/h
235 11-05-2010 22:52:03 9.7 C 8.67 g/m*3 9.7 C 0 km/h
236 11-05-2010 23:04:03 9.8 C 8.72 g/m*3 9.8 C 0 km/h
237 11-05-2010 23:16:03 9.8 C 8.72 g/m*3 9.8 C 0 km/h
238 11-05-2010 23:28:03 9.8 C 8.72 g/m*3 9.8 C 0 km/h
239 11-05-2010 23:40:03 9.9 C 8.78 g/m*3 9.9 C 0 km/h
240 11-05-2010 23:52:03 9.7 C 8.67 g/m*3 9.7 C 0 km/h
241 12-05-2010 00:04:03 9.7 C 8.67 g/m*3 9.7 C 0 km/h
242 12-05-2010 00:16:03 9.6 C 8.61 g/m*3 9.6 C 0 km/h
243 12-05-2010 00:28:03 9.1 C 8.34 g/m*3 9.1 C 0 km/h
244 12-05-2010 00:40:03 9.1 C 8.34 g/m*3 9.1 C 0 km/h
245 12-05-2010 00:52:03 9.1 C 8.34 g/m*3 9.1 C 0 km/h
246 12-05-2010 01:04:03 9.1 C 8.34 g/m*3 9.1 C 0 km/h
247 12-05-2010 01:16:03 8.8 C 8.27 g/m*3 8.8 C 0 km/h
248 12-05-2010 01:28:04 8.5 C 8.03 g/m*3 8.5 C 0 km/h
249 12-05-2010 01:40:04 8.4 C 7.97 g/m*3 8.4 C 0 km/h
250 12-05-2010 01:52:04 7.8 C 7.75 g/m*3 7.8 C 0 km/h
Sensor: Nr:Datum:Temp:Abs-Feuchte:Windchill:Wind:
Aussen-T/F 251 12-05-2010 02:04:04 7.5 C 7.52 g/m*3 7.5 C 0 km/h
252 12-05-2010 02:16:04 7.8 C 7.75 g/m*3 7.8 C 0 km/h
253 12-05-2010 02:28:04 7.9 C 7.8 g/m*3 7.9 C 0 km/h
254 12-05-2010 02:40:04 7.9 C 7.8 g/m*3 7.9 C 0 km/h
255 12-05-2010 02:52:04 7.5 C 7.6 g/m*3 7.5 C 0 km/h
256 12-05-2010 03:04:04 7.3 C 7.43 g/m*3 7.3 C 0 km/h
257 12-05-2010 03:16:04 7.2 C 7.38 g/m*3 7.2 C 0 km/h
258 12-05-2010 03:28:04 7.1 C 7.33 g/m*3 7.1 C 0 km/h
259 12-05-2010 03:40:04 7 C 7.28 g/m*3 7 C 0 km/h
260 12-05-2010 03:52:04 7 C 7.21 g/m*3 7 C 0 km/h
261 12-05-2010 04:04:04 6.9 C 7.16 g/m*3 6.9 C 0 km/h
262 12-05-2010 04:16:04 6.9 C 7.08 g/m*3 6.9 C 0 km/h
263 12-05-2010 04:28:04 6.9 C 7.01 g/m*3 6.9 C 0 km/h
264 12-05-2010 04:40:04 6.9 C 6.93 g/m*3 6.9 C 0 km/h
265 12-05-2010 04:52:04 6.8 C 6.81 g/m*3 6.8 C 0 km/h
266 12-05-2010 05:04:04 6.8 C 6.73 g/m*3 6.8 C 0 km/h
267 12-05-2010 05:16:04 6.8 C 6.65 g/m*3 6.8 C 0 km/h
268 12-05-2010 05:28:04 6.8 C 6.65 g/m*3 6.8 C 0 km/h
269 12-05-2010 05:40:05 6.8 C 6.65 g/m*3 6.8 C 0 km/h
270 12-05-2010 05:52:05 6.8 C 6.65 g/m*3 6.8 C 0 km/h
271 12-05-2010 06:04:05 6.7 C 6.61 g/m*3 6.7 C 0 km/h
272 12-05-2010 06:16:05 6.8 C 6.58 g/m*3 6.8 C 0 km/h
273 12-05-2010 06:28:05 6.8 C 6.5 g/m*3 6.8 C 0 km/h
274 12-05-2010 06:40:05 6.8 C 6.58 g/m*3 6.8 C 0 km/h
275 12-05-2010 06:52:05 6.8 C 6.58 g/m*3 6.8 C 0 km/h
Sensor: Nr:Datum:Temp:Abs-Feuchte:Windchill:Wind:
Aussen-T/F 276 12-05-2010 07:04:03 6.9 C 6.54 g/m*3 6.9 C 0 km/h
277 12-05-2010 07:16:03 7 C 6.59 g/m*3 7 C 0 km/h
278 12-05-2010 07:28:03 7.1 C 6.71 g/m*3 7.1 C 0 km/h
279 12-05-2010 07:40:03 7.2 C 6.67 g/m*3 7.2 C 0 km/h
280 12-05-2010 07:52:02 7.2 C 6.59 g/m*3 7.2 C 0 km/h
281 12-05-2010 08:04:02 7.3 C 6.56 g/m*3 7.3 C 0 km/h
282 12-05-2010 08:16:02 7.6 C 6.69 g/m*3 7.6 C 0 km/h
283 12-05-2010 08:28:02 7.7 C 6.57 g/m*3 7.7 C 0 km/h
284 12-05-2010 08:40:02 7.8 C 6.45 g/m*3 7.8 C 0 km/h
285 12-05-2010 08:52:01 7.8 C 6.45 g/m*3 7.8 C 0 km/h
286 12-05-2010 09:04:02 8 C 6.37 g/m*3 8 C 0 km/h
287 12-05-2010 09:16:01 8.3 C 6.41 g/m*3 8.3 C 0 km/h
288 12-05-2010 09:28:01 8.4 C 6.19 g/m*3 8.4 C 0 km/h
289 12-05-2010 09:40:01 8.3 C 6.07 g/m*3 8.3 C 0 km/h
290 12-05-2010 09:52:01 8.4 C 6.11 g/m*3 8.4 C 0 km/h
291 12-05-2010 10:04:02 8.4 C 6.02 g/m*3 8.4 C 0 km/h
292 12-05-2010 10:16:01 8.6 C 6.1 g/m*3 8.6 C 0 km/h
293 12-05-2010 10:28:01 8.6 C 6.02 g/m*3 8.6 C 0 km/h
294 12-05-2010 10:40:01 8.7 C 5.97 g/m*3 8.7 C 0 km/h
295 12-05-2010 10:52:01 8.7 C 5.79 g/m*3 8.7 C 0 km/h
296 12-05-2010 11:04:01 8.7 C 5.79 g/m*3 8.7 C 0 km/h
297 12-05-2010 11:16:02 8.9 C 5.87 g/m*3 8.9 C 0 km/h
298 12-05-2010 11:28:02 8.9 C 5.61 g/m*3 8.9 C 0 km/h
299 12-05-2010 11:40:01 9.3 C 5.57 g/m*3 9.3 C 0 km/h
300 12-05-2010 11:52:01 10.1 C 5.67 g/m*3 10.1 C 0 km/h
Sensor: Nr:Datum:Temp:Abs-Feuchte:Windchill:Wind:
Aussen-T/F 301 12-05-2010 12:04:01 10 C 5.54 g/m*3 10 C 0 km/h
302 12-05-2010 12:16:02 9.7 C 5.35 g/m*3 9.7 C 0 km/h
303 12-05-2010 12:28:02 9.9 C 5.51 g/m*3 9.9 C 0 km/h
304 12-05-2010 12:40:01 10.5 C 5.33 g/m*3 10.5 C 0 km/h
305 12-05-2010 12:52:03 10.2 C 5.42 g/m*3 10.2 C 0 km/h
306 12-05-2010 13:04:02 10.5 C 5.43 g/m*3 10.5 C 0 km/h
307 12-05-2010 13:16:02 11.1 C 5.34 g/m*3 11.1 C 0 km/h
308 12-05-2010 13:28:02 10.7 C 5.3 g/m*3 10.7 C 0 km/h
309 12-05-2010 13:40:02 10.4 C 5.2 g/m*3 10.4 C 0 km/h
310 12-05-2010 13:52:02 10.7 C 5.21 g/m*3 10.7 C 0 km/h
311 12-05-2010 14:04:02 10.2 C 5.23 g/m*3 10.2 C 0 km/h
312 12-05-2010 14:16:02 10.2 C 5.23 g/m*3 10.2 C 0 km/h
313 12-05-2010 14:28:02 10.6 C 5.17 g/m*3 10.6 C 0 km/h
314 12-05-2010 14:40:01 10.9 C 5.17 g/m*3 10.9 C 0 km/h
315 12-05-2010 14:52:02 10.7 C 4.81 g/m*3 10.7 C 0 km/h
316 12-05-2010 15:04:01 11.1 C 5.14 g/m*3 11.1 C 0 km/h
317 12-05-2010 15:16:02 10.8 C 4.94 g/m*3 10.8 C 0 km/h
318 12-05-2010 15:28:02 10.8 C 4.84 g/m*3 10.8 C 0 km/h
319 12-05-2010 15:40:02 10.8 C 5.04 g/m*3 10.8 C 0 km/h
320 12-05-2010 15:52:02 10.7 C 5.11 g/m*3 10.7 C 0 km/h
321 12-05-2010 16:04:02 10.8 C 5.24 g/m*3 10.8 C 0 km/h
322 12-05-2010 16:16:02 10.9 C 5.17 g/m*3 10.9 C 0 km/h
323 12-05-2010 16:28:02 10.7 C 5.3 g/m*3 10.7 C 0 km/h
324 12-05-2010 16:40:02 10.3 C 5.17 g/m*3 10.3 C 0 km/h
325 12-05-2010 16:52:01 9.9 C 5.32 g/m*3 9.9 C 0 km/h
Sensor: Nr:Datum:Temp:Abs-Feuchte:Windchill:Wind:
Aussen-T/F 326 12-05-2010 17:04:02 9.6 C 5.22 g/m*3 9.6 C 0 km/h
327 12-05-2010 17:16:01 9.7 C 5.35 g/m*3 9.7 C 0 km/h
328 12-05-2010 17:28:01 9.9 C 5.32 g/m*3 9.9 C 0 km/h
329 12-05-2010 17:40:02 9.9 C 5.32 g/m*3 9.9 C 0 km/h
330 12-05-2010 17:52:02 9.6 C 5.22 g/m*3 9.6 C 0 km/h
331 12-05-2010 18:04:02 9.6 C 5.4 g/m*3 9.6 C 0 km/h
332 12-05-2010 18:16:01 9.3 C 5.39 g/m*3 9.3 C 0 km/h
333 12-05-2010 18:28:01 9.1 C 5.41 g/m*3 9.1 C 0 km/h
334 12-05-2010 18:40:02 9.1 C 5.5 g/m*3 9.1 C 0 km/h
335 12-05-2010 18:52:02 9 C 5.55 g/m*3 9 C 0 km/h
336 12-05-2010 19:04:02 9 C 5.64 g/m*3 9 C 0 km/h
337 12-05-2010 19:16:01 8.8 C 5.66 g/m*3 8.8 C 0 km/h
338 12-05-2010 19:28:01 9 C 5.73 g/m*3 9 C 0 km/h
339 12-05-2010 19:40:02 9 C 5.73 g/m*3 9 C 0 km/h
340 12-05-2010 19:52:02 8.7 C 5.71 g/m*3 8.7 C 0 km/h
341 12-05-2010 20:04:02 8.6 C 5.76 g/m*3 8.6 C 0 km/h
342 12-05-2010 20:16:02 8.6 C 5.84 g/m*3 8.6 C 0 km/h
343 12-05-2010 20:28:02 8.6 C 5.84 g/m*3 8.6 C 0 km/h
344 12-05-2010 20:40:02 8.5 C 5.81 g/m*3 8.5 C 0 km/h
345 12-05-2010 20:52:02 8.5 C 5.98 g/m*3 8.5 C 0 km/h
346 12-05-2010 21:04:02 8.5 C 5.89 g/m*3 8.5 C 0 km/h
347 12-05-2010 21:16:02 8.4 C 5.94 g/m*3 8.4 C 0 km/h
348 12-05-2010 21:28:02 8.5 C 6.06 g/m*3 8.5 C 0 km/h
349 12-05-2010 21:40:01 8.5 C 6.06 g/m*3 8.5 C 0 km/h
350 12-05-2010 21:52:02 8.3 C 6.07 g/m*3 8.3 C 0 km/h
Sensor: Nr:Datum:Temp:Abs-Feuchte:Windchill:Wind:
Aussen-T/F 351 12-05-2010 22:04:01 8 C 6.2 g/m*3 8 C 0 km/h
352 12-05-2010 22:17:03 8 C 6.37 g/m*3 8 C 0 km/h
353 12-05-2010 22:29:03 7.6 C 6.36 g/m*3 7.6 C 0 km/h
354 12-05-2010 22:41:03 7.5 C 6.48 g/m*3 7.5 C 0 km/h
355 12-05-2010 22:53:03 7.7 C 6.65 g/m*3 7.7 C 0 km/h
356 12-05-2010 23:05:03 7.8 C 6.69 g/m*3 7.8 C 0 km/h
357 12-05-2010 23:17:03 7.8 C 6.69 g/m*3 7.8 C 0 km/h
358 12-05-2010 23:29:03 7.8 C 6.69 g/m*3 7.8 C 0 km/h
359 12-05-2010 23:41:04 7.9 C 6.74 g/m*3 7.9 C 0 km/h
360 12-05-2010 23:53:04 7.7 C 6.57 g/m*3 7.7 C 0 km/h
361 13-05-2010 00:05:04 7.7 C 6.57 g/m*3 7.7 C 0 km/h
362 13-05-2010 00:17:04 7.6 C 6.53 g/m*3 7.6 C 0 km/h
363 13-05-2010 00:29:04 7.5 C 6.4 g/m*3 7.5 C 0 km/h
364 13-05-2010 00:41:04 7.6 C 6.44 g/m*3 7.6 C 0 km/h
365 13-05-2010 00:53:04 7.5 C 6.4 g/m*3 7.5 C 0 km/h
366 13-05-2010 01:05:04 7.4 C 6.36 g/m*3 7.4 C 0 km/h
367 13-05-2010 01:17:04 7.3 C 6.48 g/m*3 7.3 C 0 km/h
368 13-05-2010 01:29:04 7.3 C 6.48 g/m*3 7.3 C 0 km/h
369 13-05-2010 01:41:04 7.3 C 6.56 g/m*3 7.3 C 0 km/h
370 13-05-2010 01:53:04 7.4 C 6.68 g/m*3 7.4 C 0 km/h
371 13-05-2010 02:05:04 7.5 C 6.72 g/m*3 7.5 C 0 km/h
372 13-05-2010 02:17:04 7.4 C 6.6 g/m*3 7.4 C 0 km/h
373 13-05-2010 02:29:04 7.4 C 6.52 g/m*3 7.4 C 0 km/h
374 13-05-2010 02:41:04 7.4 C 6.52 g/m*3 7.4 C 0 km/h
375 13-05-2010 02:53:04 7.4 C 6.52 g/m*3 7.4 C 0 km/h
Sensor: Nr:Datum:Temp:Abs-Feuchte:Windchill:Wind:
Aussen-T/F 376 13-05-2010 03:05:04 7.4 C 6.52 g/m*3 7.4 C 0 km/h
377 13-05-2010 03:17:04 7.4 C 6.52 g/m*3 7.4 C 0 km/h
378 13-05-2010 03:29:04 7.3 C 6.48 g/m*3 7.3 C 0 km/h
379 13-05-2010 03:41:05 7.3 C 6.56 g/m*3 7.3 C 0 km/h
380 13-05-2010 03:53:05 7.1 C 6.47 g/m*3 7.1 C 0 km/h
381 13-05-2010 04:05:05 6.9 C 6.54 g/m*3 6.9 C 0 km/h
382 13-05-2010 04:17:05 7 C 6.51 g/m*3 7 C 0 km/h
383 13-05-2010 04:29:05 7.1 C 6.63 g/m*3 7.1 C 0 km/h
384 13-05-2010 04:41:05 7.1 C 6.63 g/m*3 7.1 C 0 km/h
385 13-05-2010 04:53:05 6.9 C 6.62 g/m*3 6.9 C 0 km/h
386 13-05-2010 05:05:05 6.9 C 6.7 g/m*3 6.9 C 0 km/h
387 13-05-2010 05:17:05 6.8 C 6.65 g/m*3 6.8 C 0 km/h
388 13-05-2010 05:29:05 6.8 C 6.65 g/m*3 6.8 C 0 km/h
389 13-05-2010 05:41:05 6.7 C 6.61 g/m*3 6.7 C 0 km/h
390 13-05-2010 05:53:05 6.6 C 6.64 g/m*3 6.6 C 0 km/h
391 13-05-2010 06:05:05 6.6 C 6.64 g/m*3 6.6 C 0 km/h
392 13-05-2010 06:17:05 6.7 C 6.69 g/m*3 6.7 C 0 km/h
393 13-05-2010 06:29:05 6.7 C 6.69 g/m*3 6.7 C 0 km/h
394 13-05-2010 06:41:05 6.6 C 6.64 g/m*3 6.6 C 0 km/h
395 13-05-2010 06:53:05 6.6 C 6.64 g/m*3 6.6 C 0 km/h
396 13-05-2010 07:05:05 6.7 C 6.76 g/m*3 6.7 C 0 km/h
397 13-05-2010 07:17:05 6.7 C 6.76 g/m*3 6.7 C 0 km/h
398 13-05-2010 07:29:05 6.9 C 6.77 g/m*3 6.9 C 0 km/h
399 13-05-2010 07:41:05 6.9 C 6.7 g/m*3 6.9 C 0 km/h
400 13-05-2010 07:53:01 6.8 C 6.5 g/m*3 6.8 C 0 km/h
Sensor: Nr:Datum:Temp:Abs-Feuchte:Windchill:Wind:
Aussen-T/F 401 13-05-2010 08:05:01 6.8 C 6.42 g/m*3 6.8 C 0 km/h
402 13-05-2010 08:17:02 6.8 C 6.35 g/m*3 6.8 C 0 km/h
403 13-05-2010 08:29:02 6.9 C 6.31 g/m*3 6.9 C 0 km/h
404 13-05-2010 08:41:01 7 C 6.12 g/m*3 7 C 0 km/h
405 13-05-2010 08:53:02 7.2 C 6.12 g/m*3 7.2 C 0 km/h
406 13-05-2010 09:05:01 7.5 C 6.24 g/m*3 7.5 C 0 km/h
407 13-05-2010 09:17:01 7.8 C 6.2 g/m*3 7.8 C 0 km/h
408 13-05-2010 09:29:01 7.9 C 6 g/m*3 7.9 C 0 km/h
409 13-05-2010 09:41:01 8.2 C 5.86 g/m*3 8.2 C 0 km/h
410 13-05-2010 09:53:02 8.3 C 5.65 g/m*3 8.3 C 0 km/h
411 13-05-2010 10:05:01 8.9 C 5.69 g/m*3 8.9 C 0 km/h
412 13-05-2010 10:17:02 9.1 C 5.41 g/m*3 9.1 C 0 km/h
413 13-05-2010 10:29:02 9.7 C 5.62 g/m*3 9.7 C 0 km/h
414 13-05-2010 10:41:02 9.7 C 5.16 g/m*3 9.7 C 0 km/h
415 13-05-2010 10:53:01 9.9 C 5.23 g/m*3 9.9 C 0 km/h
416 13-05-2010 11:05:02 10.2 C 5.23 g/m*3 10.2 C 0 km/h
417 13-05-2010 11:17:01 10 C 4.98 g/m*3 10 C 0 km/h
418 13-05-2010 11:29:01 10.1 C 4.92 g/m*3 10.1 C 0 km/h
419 13-05-2010 11:41:02 9.5 C 5.01 g/m*3 9.5 C 0 km/h
420 13-05-2010 11:53:02 9.7 C 5.16 g/m*3 9.7 C 0 km/h
421 13-05-2010 12:05:02 9.7 C 4.89 g/m*3 9.7 C 0 km/h
422 13-05-2010 12:17:01 9.5 C 4.92 g/m*3 9.5 C 0 km/h
423 13-05-2010 12:29:01 10.2 C 4.95 g/m*3 10.2 C 0 km/h
424 13-05-2010 12:41:02 10.1 C 4.63 g/m*3 10.1 C 0 km/h
425 13-05-2010 12:53:02 10.8 C 4.84 g/m*3 10.8 C 0 km/h
Sensor: Nr:Datum:Temp:Abs-Feuchte:Windchill:Wind:
Aussen-T/F 426 13-05-2010 13:05:02 11 C 4.8 g/m*3 11 C 0 km/h
427 13-05-2010 13:17:01 10.1 C 4.92 g/m*3 10.1 C 0 km/h
428 13-05-2010 13:29:01 9.3 C 4.94 g/m*3 9.3 C 0 km/h
429 13-05-2010 13:41:02 8.9 C 5.08 g/m*3 8.9 C 0 km/h
430 13-05-2010 13:53:02 9.4 C 5.16 g/m*3 9.4 C 0 km/h
431 13-05-2010 14:05:02 10 C 5.17 g/m*3 10 C 0 km/h
432 13-05-2010 14:17:02 10.5 C 5.14 g/m*3 10.5 C 0 km/h
433 13-05-2010 14:29:02 10.9 C 5.07 g/m*3 10.9 C 0 km/h
434 13-05-2010 14:41:02 10.6 C 4.78 g/m*3 10.6 C 0 km/h
435 13-05-2010 14:53:01 11 C 4.9 g/m*3 11 C 0 km/h
436 13-05-2010 15:05:02 11 C 4.8 g/m*3 11 C 0 km/h
437 13-05-2010 15:17:02 10.5 C 4.85 g/m*3 10.5 C 0 km/h
438 13-05-2010 15:29:02 10 C 4.79 g/m*3 10 C 0 km/h
439 13-05-2010 15:41:02 9.8 C 5.1 g/m*3 9.8 C 0 km/h
440 13-05-2010 15:53:02 9.2 C 5.36 g/m*3 9.2 C 0 km/h
441 13-05-2010 16:05:01 8.7 C 5.53 g/m*3 8.7 C 0 km/h
442 13-05-2010 16:17:02 8.5 C 5.81 g/m*3 8.5 C 0 km/h
443 13-05-2010 16:29:02 8.6 C 6.02 g/m*3 8.6 C 0 km/h
444 13-05-2010 16:41:01 8.6 C 6.19 g/m*3 8.6 C 0 km/h
445 13-05-2010 16:53:02 8.9 C 6.57 g/m*3 8.9 C 0 km/h
446 13-05-2010 17:05:01 8.4 C 6.19 g/m*3 8.4 C 0 km/h
447 13-05-2010 17:17:02 8.2 C 6.28 g/m*3 8.2 C 0 km/h
448 13-05-2010 17:29:03 8.2 C 6.36 g/m*3 8.2 C 0 km/h
449 13-05-2010 17:41:01 8.2 C 6.53 g/m*3 8.2 C 0 km/h
450 13-05-2010 17:53:02 8.1 C 6.49 g/m*3 8.1 C 0 km/h
Sensor: Nr:Datum:Temp:Abs-Feuchte:Windchill:Wind:
Aussen-T/F 451 13-05-2010 18:05:02 8.3 C 6.66 g/m*3 8.3 C 0 km/h
452 13-05-2010 18:17:02 9 C 7.05 g/m*3 9 C 0 km/h
453 13-05-2010 18:29:02 8.9 C 7.1 g/m*3 8.9 C 0 km/h
454 13-05-2010 18:41:02 8.7 C 7.01 g/m*3 8.7 C 0 km/h
455 13-05-2010 18:53:02 7.9 C 6.74 g/m*3 7.9 C 0 km/h
456 13-05-2010 19:05:02 7.7 C 6.81 g/m*3 7.7 C 0 km/h
457 13-05-2010 19:17:01 7.5 C 6.8 g/m*3 7.5 C 0 km/h
458 13-05-2010 19:29:01 7.3 C 6.72 g/m*3 7.3 C 0 km/h
459 13-05-2010 19:41:02 7.3 C 6.79 g/m*3 7.3 C 0 km/h
460 13-05-2010 19:53:02 7.2 C 6.75 g/m*3 7.2 C 0 km/h
461 13-05-2010 20:05:02 7.3 C 6.87 g/m*3 7.3 C 0 km/h
462 13-05-2010 20:17:02 7.4 C 6.92 g/m*3 7.4 C 0 km/h
463 13-05-2010 20:29:02 7.4 C 7 g/m*3 7.4 C 0 km/h
464 13-05-2010 20:41:02 7.5 C 7.04 g/m*3 7.5 C 0 km/h
465 13-05-2010 20:53:01 7.6 C 7.09 g/m*3 7.6 C 0 km/h
466 13-05-2010 21:05:02 7.5 C 7.12 g/m*3 7.5 C 0 km/h
467 13-05-2010 21:17:01 7.5 C 7.12 g/m*3 7.5 C 0 km/h
468 13-05-2010 21:29:01 7.4 C 7.08 g/m*3 7.4 C 0 km/h
469 13-05-2010 21:41:01 7.4 C 7.08 g/m*3 7.4 C 0 km/h
470 13-05-2010 21:53:01 7.4 C 7.16 g/m*3 7.4 C 0 km/h
471 13-05-2010 22:05:02 7.4 C 7.16 g/m*3 7.4 C 0 km/h
472 13-05-2010 22:17:01 7.4 C 7.16 g/m*3 7.4 C 0 km/h
473 13-05-2010 22:29:01 7.3 C 7.11 g/m*3 7.3 C 0 km/h
474 13-05-2010 22:41:02 7.2 C 7.06 g/m*3 7.2 C 0 km/h
475 13-05-2010 22:54:02 7.2 C 7.06 g/m*3 7.2 C 0 km/h
Sensor: Nr:Datum:Temp:Abs-Feuchte:Windchill:Wind:
Aussen-T/F 476 13-05-2010 23:06:02 7.2 C 7.06 g/m*3 7.2 C 0 km/h
477 13-05-2010 23:18:03 7.3 C 7.11 g/m*3 7.3 C 0 km/h
478 13-05-2010 23:30:03 7.3 C 7.19 g/m*3 7.3 C 0 km/h
479 13-05-2010 23:42:03 7.2 C 7.14 g/m*3 7.2 C 0 km/h
480 13-05-2010 23:54:03 7.2 C 7.14 g/m*3 7.2 C 0 km/h
481 14-05-2010 00:06:03 7 C 7.05 g/m*3 7 C 0 km/h
482 14-05-2010 00:18:03 6.9 C 7.16 g/m*3 6.9 C 0 km/h
483 14-05-2010 00:30:03 6.9 C 7.16 g/m*3 6.9 C 0 km/h
484 14-05-2010 00:42:03 7 C 7.21 g/m*3 7 C 0 km/h
485 14-05-2010 00:54:03 7 C 7.21 g/m*3 7 C 0 km/h
486 14-05-2010 01:06:03 6.9 C 7.24 g/m*3 6.9 C 0 km/h
487 14-05-2010 01:18:03 7 C 7.21 g/m*3 7 C 0 km/h
488 14-05-2010 01:30:03 7.1 C 7.25 g/m*3 7.1 C 0 km/h
489 14-05-2010 01:42:03 7.1 C 7.25 g/m*3 7.1 C 0 km/h
490 14-05-2010 01:54:03 7.1 C 7.25 g/m*3 7.1 C 0 km/h
491 14-05-2010 02:06:03 7.1 C 7.25 g/m*3 7.1 C 0 km/h
492 14-05-2010 02:18:03 7 C 7.21 g/m*3 7 C 0 km/h
493 14-05-2010 02:30:03 6.9 C 7.24 g/m*3 6.9 C 0 km/h
494 14-05-2010 02:42:03 7 C 7.21 g/m*3 7 C 0 km/h
495 14-05-2010 02:54:03 7 C 7.28 g/m*3 7 C 0 km/h
496 14-05-2010 03:06:03 7 C 7.28 g/m*3 7 C 0 km/h
497 14-05-2010 03:18:03 6.9 C 7.24 g/m*3 6.9 C 0 km/h
498 14-05-2010 03:30:04 7 C 7.28 g/m*3 7 C 0 km/h
499 14-05-2010 03:42:04 7 C 7.28 g/m*3 7 C 0 km/h
500 14-05-2010 03:54:04 7 C 7.28 g/m*3 7 C 0 km/h
Sensor: Nr:Datum:Temp:Abs-Feuchte:Windchill:Wind:
Aussen-T/F 501 14-05-2010 04:06:04 7 C 7.28 g/m*3 7 C 0 km/h
502 14-05-2010 04:18:04 7 C 7.28 g/m*3 7 C 0 km/h
503 14-05-2010 04:30:04 6.9 C 7.24 g/m*3 6.9 C 0 km/h
504 14-05-2010 04:42:04 6.9 C 7.24 g/m*3 6.9 C 0 km/h
505 14-05-2010 04:54:04 6.9 C 7.24 g/m*3 6.9 C 0 km/h
506 14-05-2010 05:06:04 6.8 C 7.19 g/m*3 6.8 C 0 km/h
507 14-05-2010 05:18:04 6.9 C 7.24 g/m*3 6.9 C 0 km/h
508 14-05-2010 05:30:04 6.8 C 7.27 g/m*3 6.8 C 0 km/h
509 14-05-2010 05:42:04 6.9 C 7.31 g/m*3 6.9 C 0 km/h
510 14-05-2010 05:54:04 7 C 7.28 g/m*3 7 C 0 km/h
511 14-05-2010 06:06:04 7.1 C 7.33 g/m*3 7.1 C 0 km/h
512 14-05-2010 06:18:04 7.1 C 7.33 g/m*3 7.1 C 0 km/h
513 14-05-2010 06:30:04 7 C 7.28 g/m*3 7 C 0 km/h
514 14-05-2010 06:42:04 7.1 C 7.33 g/m*3 7.1 C 0 km/h
515 14-05-2010 06:54:04 7.2 C 7.38 g/m*3 7.2 C 0 km/h
516 14-05-2010 07:06:02 7.2 C 7.3 g/m*3 7.2 C 0 km/h
517 14-05-2010 07:18:02 7.3 C 7.35 g/m*3 7.3 C 0 km/h
518 14-05-2010 07:30:02 7.5 C 7.44 g/m*3 7.5 C 0 km/h
519 14-05-2010 07:42:02 7.5 C 7.44 g/m*3 7.5 C 0 km/h
520 14-05-2010 07:54:01 7.5 C 7.36 g/m*3 7.5 C 0 km/h
521 14-05-2010 08:06:02 7.7 C 7.38 g/m*3 7.7 C 0 km/h
522 14-05-2010 08:18:01 7.9 C 7.47 g/m*3 7.9 C 0 km/h
523 14-05-2010 08:30:01 8.1 C 7.41 g/m*3 8.1 C 0 km/h
524 14-05-2010 08:42:02 7.9 C 7.31 g/m*3 7.9 C 0 km/h
525 14-05-2010 08:54:02 8 C 7.19 g/m*3 8 C 0 km/h
Sensor: Nr:Datum:Temp:Abs-Feuchte:Windchill:Wind:
Aussen-T/F 526 14-05-2010 09:06:02 8 C 7.19 g/m*3 8 C 0 km/h
527 14-05-2010 09:18:01 7.9 C 7.15 g/m*3 7.9 C 0 km/h
528 14-05-2010 09:30:01 8 C 7.03 g/m*3 8 C 0 km/h
529 14-05-2010 09:42:02 8.6 C 7.39 g/m*3 8.6 C 0 km/h
530 14-05-2010 09:54:02 8.4 C 7.13 g/m*3 8.4 C 0 km/h
531 14-05-2010 10:06:02 8.7 C 7.18 g/m*3 8.7 C 0 km/h
532 14-05-2010 10:18:02 9.4 C 7.33 g/m*3 9.4 C 0 km/h
533 14-05-2010 10:30:02 9.5 C 7.01 g/m*3 9.5 C 0 km/h
534 14-05-2010 10:42:02 10 C 7.24 g/m*3 10 C 0 km/h
535 14-05-2010 10:54:01 10.3 C 7.18 g/m*3 10.3 C 0 km/h
536 14-05-2010 11:06:02 11 C 7.31 g/m*3 11 C 0 km/h
537 14-05-2010 11:18:02 10.5 C 6.6 g/m*3 10.5 C 0 km/h
538 14-05-2010 11:30:02 10.1 C 6.34 g/m*3 10.1 C 0 km/h
539 14-05-2010 11:42:02 10.4 C 6.75 g/m*3 10.4 C 0 km/h
540 14-05-2010 11:54:02 9.9 C 6.82 g/m*3 9.9 C 0 km/h
541 14-05-2010 12:06:01 9.1 C 6.39 g/m*3 9.1 C 0 km/h
542 14-05-2010 12:18:02 9 C 6.44 g/m*3 9 C 0 km/h
543 14-05-2010 12:30:02 9.3 C 7.1 g/m*3 9.3 C 0 km/h
544 14-05-2010 12:42:01 9.3 C 7.28 g/m*3 9.3 C 0 km/h
545 14-05-2010 12:54:02 9.1 C 7.28 g/m*3 9.1 C 0 km/h
546 14-05-2010 13:06:01 9.3 C 7.46 g/m*3 9.3 C 0 km/h
547 14-05-2010 13:18:01 9.5 C 7.65 g/m*3 9.5 C 0 km/h
548 14-05-2010 13:30:01 9.6 C 7.69 g/m*3 9.6 C 0 km/h
549 14-05-2010 13:42:02 9.7 C 7.74 g/m*3 9.7 C 0 km/h
550 14-05-2010 13:54:02 9.2 C 7.41 g/m*3 9.2 C 0 km/h
Sensor: Nr:Datum:Temp:Abs-Feuchte:Windchill:Wind:
Aussen-T/F 551 14-05-2010 14:06:01 9 C 7.41 g/m*3 9 C 0 km/h
552 14-05-2010 14:18:02 9.2 C 7.59 g/m*3 9.2 C 0 km/h
553 14-05-2010 14:30:02 9.5 C 7.74 g/m*3 9.5 C 0 km/h
554 14-05-2010 14:42:02 9.7 C 7.84 g/m*3 9.7 C 0 km/h
555 14-05-2010 14:54:02 10.5 C 8.15 g/m*3 10.5 C 0 km/h
556 14-05-2010 15:06:02 11.2 C 8.21 g/m*3 11.2 C 0 km/h
557 14-05-2010 15:18:01 11.7 C 7.95 g/m*3 11.7 C 0 km/h
558 14-05-2010 15:30:01 12 C 7.67 g/m*3 12 C 0 km/h
559 14-05-2010 15:42:02 12.2 C 7.23 g/m*3 12.2 C 0 km/h
560 14-05-2010 15:54:02 12.2 C 6.91 g/m*3 12.2 C 0 km/h
561 14-05-2010 16:06:02 12.6 C 6.97 g/m*3 12.6 C 0 km/h
562 14-05-2010 16:18:01 12.8 C 7.06 g/m*3 12.8 C 0 km/h
563 14-05-2010 16:30:01 13.3 C 6.93 g/m*3 13.3 C 0 km/h
564 14-05-2010 16:42:02 13.4 C 6.63 g/m*3 13.4 C 0 km/h
565 14-05-2010 16:54:02 12.8 C 6.27 g/m*3 12.8 C 0 km/h
566 14-05-2010 17:06:02 12.2 C 6.37 g/m*3 12.2 C 0 km/h
567 14-05-2010 17:18:02 11.9 C 6.25 g/m*3 11.9 C 0 km/h
568 14-05-2010 17:30:02 11.4 C 6.77 g/m*3 11.4 C 0 km/h
569 14-05-2010 17:42:02 11 C 6.81 g/m*3 11 C 0 km/h
570 14-05-2010 17:54:02 11.2 C 6.79 g/m*3 11.2 C 0 km/h
571 14-05-2010 18:06:02 11.5 C 6.71 g/m*3 11.5 C 0 km/h
572 14-05-2010 18:18:03 11.8 C 6.74 g/m*3 11.8 C 0 km/h
573 14-05-2010 18:30:03 12 C 6.82 g/m*3 12 C 0 km/h
574 14-05-2010 18:42:02 11.5 C 6.71 g/m*3 11.5 C 0 km/h
575 14-05-2010 18:54:02 11 C 6.81 g/m*3 11 C 0 km/h
Sensor: Nr:Datum:Temp:Abs-Feuchte:Windchill:Wind:
Aussen-T/F 576 14-05-2010 19:06:02 10.5 C 6.89 g/m*3 10.5 C 0 km/h
577 14-05-2010 19:18:03 10.3 C 6.99 g/m*3 10.3 C 0 km/h
578 14-05-2010 19:30:03 10.4 C 7.13 g/m*3 10.4 C 0 km/h
579 14-05-2010 19:42:02 10.5 C 6.98 g/m*3 10.5 C 0 km/h
580 14-05-2010 19:54:02 10.6 C 7.03 g/m*3 10.6 C 0 km/h
581 14-05-2010 20:06:02 10.5 C 7.08 g/m*3 10.5 C 0 km/h
582 14-05-2010 20:18:02 10.2 C 6.95 g/m*3 10.2 C 0 km/h
583 14-05-2010 20:30:02 9.9 C 6.91 g/m*3 9.9 C 0 km/h
584 14-05-2010 20:42:02 9.6 C 6.78 g/m*3 9.6 C 0 km/h
585 14-05-2010 20:54:02 9.5 C 6.92 g/m*3 9.5 C 0 km/h
586 14-05-2010 21:06:02 9.3 C 6.83 g/m*3 9.3 C 0 km/h
587 14-05-2010 21:18:02 9.2 C 6.88 g/m*3 9.2 C 0 km/h
588 14-05-2010 21:30:02 9.1 C 6.83 g/m*3 9.1 C 0 km/h
589 14-05-2010 21:42:02 9.1 C 6.92 g/m*3 9.1 C 0 km/h
590 14-05-2010 21:54:02 9 C 6.88 g/m*3 9 C 0 km/h
591 14-05-2010 22:06:02 9.1 C 7.01 g/m*3 9.1 C 0 km/h
592 14-05-2010 22:18:02 9.1 C 7.01 g/m*3 9.1 C 0 km/h
593 14-05-2010 22:30:02 9.1 C 7.1 g/m*3 9.1 C 0 km/h
594 14-05-2010 22:42:02 9.1 C 7.1 g/m*3 9.1 C 0 km/h
595 14-05-2010 22:55:03 9 C 7.14 g/m*3 9 C 0 km/h
596 14-05-2010 23:07:03 8.6 C 7.13 g/m*3 8.6 C 0 km/h
597 14-05-2010 23:19:03 8.2 C 7.12 g/m*3 8.2 C 0 km/h
598 14-05-2010 23:31:03 8.2 C 7.2 g/m*3 8.2 C 0 km/h
599 14-05-2010 23:43:03 8.1 C 7.16 g/m*3 8.1 C 0 km/h
600 14-05-2010 23:55:03 8.1 C 7.24 g/m*3 8.1 C 0 km/h
Sensor: Nr:Datum:Temp:Abs-Feuchte:Windchill:Wind:
Aussen-T/F 601 15-05-2010 00:07:03 8 C 7.19 g/m*3 8 C 0 km/h
602 15-05-2010 00:19:03 8 C 7.19 g/m*3 8 C 0 km/h
603 15-05-2010 00:31:04 7.9 C 7.23 g/m*3 7.9 C 0 km/h
604 15-05-2010 00:43:04 7.8 C 7.18 g/m*3 7.8 C 0 km/h
605 15-05-2010 00:55:04 7.8 C 7.18 g/m*3 7.8 C 0 km/h
606 15-05-2010 01:07:04 7.9 C 7.23 g/m*3 7.9 C 0 km/h
607 15-05-2010 01:19:04 7.8 C 7.18 g/m*3 7.8 C 0 km/h
608 15-05-2010 01:31:04 7.6 C 7.09 g/m*3 7.6 C 0 km/h
609 15-05-2010 01:43:04 7.6 C 7.09 g/m*3 7.6 C 0 km/h
610 15-05-2010 01:55:04 7.6 C 7.09 g/m*3 7.6 C 0 km/h
611 15-05-2010 02:07:04 7.5 C 7.04 g/m*3 7.5 C 0 km/h
612 15-05-2010 02:19:04 7.5 C 7.12 g/m*3 7.5 C 0 km/h
613 15-05-2010 02:31:04 7.6 C 7.17 g/m*3 7.6 C 0 km/h
614 15-05-2010 02:43:04 7.8 C 7.26 g/m*3 7.8 C 0 km/h
615 15-05-2010 02:55:04 7.8 C 7.26 g/m*3 7.8 C 0 km/h
616 15-05-2010 03:07:04 7.6 C 7.17 g/m*3 7.6 C 0 km/h
617 15-05-2010 03:19:04 7.6 C 7.17 g/m*3 7.6 C 0 km/h
618 15-05-2010 03:31:04 7.6 C 7.25 g/m*3 7.6 C 0 km/h
619 15-05-2010 03:43:04 7.6 C 7.25 g/m*3 7.6 C 0 km/h
620 15-05-2010 03:55:04 7.6 C 7.25 g/m*3 7.6 C 0 km/h
621 15-05-2010 04:07:04 7.6 C 7.25 g/m*3 7.6 C 0 km/h
622 15-05-2010 04:19:04 7.7 C 7.3 g/m*3 7.7 C 0 km/h
623 15-05-2010 04:31:04 7.6 C 7.25 g/m*3 7.6 C 0 km/h
624 15-05-2010 04:43:05 7.6 C 7.25 g/m*3 7.6 C 0 km/h
625 15-05-2010 04:55:05 7.5 C 7.2 g/m*3 7.5 C 0 km/h
Sensor: Nr:Datum:Temp:Abs-Feuchte:Windchill:Wind:
Aussen-T/F 626 15-05-2010 05:07:05 7.4 C 7.24 g/m*3 7.4 C 0 km/h
627 15-05-2010 05:19:05 7.3 C 7.19 g/m*3 7.3 C 0 km/h
628 15-05-2010 05:31:05 7.3 C 7.19 g/m*3 7.3 C 0 km/h
629 15-05-2010 05:43:05 7.2 C 7.14 g/m*3 7.2 C 0 km/h
630 15-05-2010 05:55:05 7.1 C 7.1 g/m*3 7.1 C 0 km/h
631 15-05-2010 06:07:05 7.1 C 7.1 g/m*3 7.1 C 0 km/h
632 15-05-2010 06:19:05 7.1 C 7.1 g/m*3 7.1 C 0 km/h
633 15-05-2010 06:31:05 7.1 C 7.18 g/m*3 7.1 C 0 km/h
634 15-05-2010 06:43:05 7.1 C 7.18 g/m*3 7.1 C 0 km/h
635 15-05-2010 06:55:05 7.1 C 7.18 g/m*3 7.1 C 0 km/h
636 15-05-2010 07:07:05 7.1 C 7.18 g/m*3 7.1 C 0 km/h
637 15-05-2010 07:19:05 7.4 C 7.32 g/m*3 7.4 C 0 km/h
638 15-05-2010 07:31:05 7.5 C 7.36 g/m*3 7.5 C 0 km/h
639 15-05-2010 07:43:05 7.8 C 7.51 g/m*3 7.8 C 0 km/h
640 15-05-2010 07:55:02 8.2 C 7.62 g/m*3 8.2 C 0 km/h
641 15-05-2010 08:07:02 8.3 C 7.59 g/m*3 8.3 C 0 km/h
642 15-05-2010 08:19:02 8.2 C 7.29 g/m*3 8.2 C 0 km/h
643 15-05-2010 08:31:03 8.6 C 7.39 g/m*3 8.6 C 0 km/h
644 15-05-2010 08:43:03 8.5 C 7 g/m*3 8.5 C 0 km/h
645 15-05-2010 08:55:02 8.8 C 7.05 g/m*3 8.8 C 0 km/h
646 15-05-2010 09:07:02 9 C 6.88 g/m*3 9 C 0 km/h
647 15-05-2010 09:19:02 9.3 C 6.92 g/m*3 9.3 C 0 km/h
648 15-05-2010 09:31:02 9.5 C 6.83 g/m*3 9.5 C 0 km/h
649 15-05-2010 09:43:02 9.6 C 6.78 g/m*3 9.6 C 0 km/h
650 15-05-2010 09:55:01 10 C 6.67 g/m*3 10 C 0 km/h
Sensor: Nr:Datum:Temp:Abs-Feuchte:Windchill:Wind:
Aussen-T/F 651 15-05-2010 10:07:02 10.5 C 6.6 g/m*3 10.5 C 0 km/h
652 15-05-2010 10:19:01 10.7 C 6.48 g/m*3 10.7 C 0 km/h
653 15-05-2010 10:31:02 10.6 C 6.34 g/m*3 10.6 C 0 km/h
654 15-05-2010 10:43:02 11.1 C 6.35 g/m*3 11.1 C 0 km/h
655 15-05-2010 10:55:02 11.1 C 6.35 g/m*3 11.1 C 0 km/h
656 15-05-2010 11:07:02 10.9 C 6.27 g/m*3 10.9 C 0 km/h
657 15-05-2010 11:19:01 10.8 C 6.23 g/m*3 10.8 C 0 km/h
658 15-05-2010 11:31:02 10.9 C 6.17 g/m*3 10.9 C 0 km/h
659 15-05-2010 11:43:02 11.5 C 5.89 g/m*3 11.5 C 0 km/h
660 15-05-2010 11:55:02 11.9 C 6.04 g/m*3 11.9 C 0 km/h
661 15-05-2010 12:07:02 11.2 C 5.68 g/m*3 11.2 C 0 km/h
662 15-05-2010 12:19:02 11.1 C 5.64 g/m*3 11.1 C 0 km/h
663 15-05-2010 12:31:02 11.2 C 5.57 g/m*3 11.2 C 0 km/h
664 15-05-2010 12:43:02 12.4 C 5.46 g/m*3 12.4 C 0 km/h
665 15-05-2010 12:55:02 12.3 C 4.78 g/m*3 12.3 C 0 km/h
666 15-05-2010 13:07:02 13.9 C 5.04 g/m*3 13.9 C 0 km/h
667 15-05-2010 13:19:03 12 C 4.58 g/m*3 12 C 0 km/h
668 15-05-2010 13:31:02 11.1 C 5.14 g/m*3 11.1 C 0 km/h
669 15-05-2010 13:43:02 11.2 C 4.87 g/m*3 11.2 C 0 km/h
670 15-05-2010 13:55:02 12.1 C 4.5 g/m*3 12.1 C 0 km/h
671 15-05-2010 14:07:02 13.7 C 4.5 g/m*3 13.7 C 0 km/h
672 15-05-2010 14:19:02 15 C 4.62 g/m*3 15 C 0 km/h
673 15-05-2010 14:31:02 14.7 C 4.15 g/m*3 14.7 C 0 km/h
674 15-05-2010 14:43:02 14 C 3.98 g/m*3 14 C 0 km/h
675 15-05-2010 14:55:01 13.9 C 3.72 g/m*3 13.9 C 0 km/h
Sensor: Nr:Datum:Temp:Abs-Feuchte:Windchill:Wind:
Aussen-T/F 676 15-05-2010 15:07:01 14.3 C 3.56 g/m*3 14.3 C 0 km/h
677 15-05-2010 15:19:01 15.2 C 3.24 g/m*3 15.2 C 0 km/h
678 15-05-2010 15:31:01 15.8 C 2.69 g/m*3 15.8 C 0 km/h
679 15-05-2010 15:43:01 16 C 2.72 g/m*3 16 C 0 km/h
680 15-05-2010 15:55:01 16.2 C 2.76 g/m*3 16.2 C 0 km/h
681 15-05-2010 16:07:02 16.2 C 2.76 g/m*3 16.2 C 0 km/h
682 15-05-2010 16:19:01 15.1 C 2.58 g/m*3 15.1 C 0 km/h
683 15-05-2010 16:31:01 14.4 C 2.47 g/m*3 14.4 C 0 km/h
684 15-05-2010 16:43:01 14.4 C 2.97 g/m*3 14.4 C 0 km/h
685 15-05-2010 16:55:01 13.8 C 2.98 g/m*3 13.8 C 0 km/h
686 15-05-2010 17:07:02 13.9 C 3.12 g/m*3 13.9 C 0 km/h
687 15-05-2010 17:19:01 14 C 3.02 g/m*3 14 C 0 km/h
688 15-05-2010 17:31:02 14.1 C 3.16 g/m*3 14.1 C 0 km/h
689 15-05-2010 17:43:02 14 C 3.26 g/m*3 14 C 0 km/h
690 15-05-2010 17:55:02 14 C 3.26 g/m*3 14 C 0 km/h
691 15-05-2010 18:07:02 13.7 C 3.43 g/m*3 13.7 C 0 km/h
692 15-05-2010 18:19:01 14 C 3.62 g/m*3 14 C 0 km/h
693 15-05-2010 18:31:02 13.8 C 3.46 g/m*3 13.8 C 0 km/h
694 15-05-2010 18:43:02 13.7 C 3.43 g/m*3 13.7 C 0 km/h
695 15-05-2010 18:55:02 13.9 C 3.36 g/m*3 13.9 C 0 km/h
696 15-05-2010 19:07:02 13.9 C 3.24 g/m*3 13.9 C 0 km/h
697 15-05-2010 19:19:02 14.6 C 3.5 g/m*3 14.6 C 0 km/h
698 15-05-2010 19:31:02 15.1 C 3.23 g/m*3 15.1 C 0 km/h
699 15-05-2010 19:43:02 14.9 C 3.44 g/m*3 14.9 C 0 km/h
700 15-05-2010 19:55:02 14.4 C 3.58 g/m*3 14.4 C 0 km/h
Sensor: Nr:Datum:Temp:Abs-Feuchte:Windchill:Wind:
Aussen-T/F 701 15-05-2010 20:07:02 13.9 C 4.2 g/m*3 13.9 C 0 km/h
702 15-05-2010 20:19:02 13.3 C 4.62 g/m*3 13.3 C 0 km/h
703 15-05-2010 20:31:02 12.4 C 4.48 g/m*3 12.4 C 0 km/h
704 15-05-2010 20:43:02 11.6 C 4.47 g/m*3 11.6 C 0 km/h
705 15-05-2010 20:55:02 11.3 C 4.59 g/m*3 11.3 C 0 km/h
706 15-05-2010 21:07:02 11.4 C 4.62 g/m*3 11.4 C 0 km/h
707 15-05-2010 21:19:02 11.1 C 4.53 g/m*3 11.1 C 0 km/h
708 15-05-2010 21:31:02 10.8 C 4.55 g/m*3 10.8 C 0 km/h
709 15-05-2010 21:43:02 10.8 C 4.84 g/m*3 10.8 C 0 km/h
710 15-05-2010 21:55:01 10.8 C 4.84 g/m*3 10.8 C 0 km/h
711 15-05-2010 22:07:02 10.8 C 4.94 g/m*3 10.8 C 0 km/h
712 15-05-2010 22:19:02 11 C 5 g/m*3 11 C 0 km/h
713 15-05-2010 22:32:02 11.1 C 4.83 g/m*3 11.1 C 0 km/h
714 15-05-2010 22:44:03 11.2 C 4.66 g/m*3 11.2 C 0 km/h
715 15-05-2010 22:56:03 11.2 C 4.66 g/m*3 11.2 C 0 km/h
716 15-05-2010 23:08:03 11.1 C 4.73 g/m*3 11.1 C 0 km/h
717 15-05-2010 23:20:03 10.9 C 4.97 g/m*3 10.9 C 0 km/h
718 15-05-2010 23:32:03 10.9 C 5.07 g/m*3 10.9 C 0 km/h
719 15-05-2010 23:44:03 10.8 C 5.04 g/m*3 10.8 C 0 km/h
720 15-05-2010 23:56:03 10.5 C 5.04 g/m*3 10.5 C 0 km/h
721 16-05-2010 00:08:03 10.2 C 5.04 g/m*3 10.2 C 0 km/h
722 16-05-2010 00:20:03 10.1 C 5.3 g/m*3 10.1 C 0 km/h
723 16-05-2010 00:32:03 10.1 C 5.39 g/m*3 10.1 C 0 km/h
724 16-05-2010 00:44:03 10 C 5.45 g/m*3 10 C 0 km/h
725 16-05-2010 00:56:03 10.1 C 5.48 g/m*3 10.1 C 0 km/h
Sensor: Nr:Datum:Temp:Abs-Feuchte:Windchill:Wind:
Aussen-T/F 726 16-05-2010 01:08:03 10 C 5.54 g/m*3 10 C 0 km/h
727 16-05-2010 01:20:03 9.7 C 5.62 g/m*3 9.7 C 0 km/h
728 16-05-2010 01:32:03 9.3 C 5.66 g/m*3 9.3 C 0 km/h
729 16-05-2010 01:44:03 9 C 5.64 g/m*3 9 C 0 km/h
730 16-05-2010 01:56:03 8.7 C 5.88 g/m*3 8.7 C 0 km/h
731 16-05-2010 02:08:03 8.4 C 5.85 g/m*3 8.4 C 0 km/h
732 16-05-2010 02:20:03 8.2 C 5.86 g/m*3 8.2 C 0 km/h
733 16-05-2010 02:32:03 8 C 5.87 g/m*3 8 C 0 km/h
734 16-05-2010 02:44:04 7.8 C 5.96 g/m*3 7.8 C 0 km/h
735 16-05-2010 02:56:04 7.8 C 5.88 g/m*3 7.8 C 0 km/h
736 16-05-2010 03:08:04 7.6 C 5.88 g/m*3 7.6 C 0 km/h
737 16-05-2010 03:20:04 7.4 C 5.88 g/m*3 7.4 C 0 km/h
738 16-05-2010 03:32:04 7.4 C 5.88 g/m*3 7.4 C 0 km/h
739 16-05-2010 03:44:04 7.5 C 5.92 g/m*3 7.5 C 0 km/h
740 16-05-2010 03:56:04 7.5 C 5.92 g/m*3 7.5 C 0 km/h
741 16-05-2010 04:08:04 7.6 C 5.96 g/m*3 7.6 C 0 km/h
742 16-05-2010 04:20:04 7.6 C 5.88 g/m*3 7.6 C 0 km/h
743 16-05-2010 04:32:04 7.6 C 5.96 g/m*3 7.6 C 0 km/h
744 16-05-2010 04:44:04 7.6 C 5.96 g/m*3 7.6 C 0 km/h
745 16-05-2010 04:56:04 7.6 C 5.96 g/m*3 7.6 C 0 km/h
746 16-05-2010 05:08:04 7.6 C 5.96 g/m*3 7.6 C 0 km/h
747 16-05-2010 05:20:04 7.5 C 5.92 g/m*3 7.5 C 0 km/h
748 16-05-2010 05:32:04 7.2 C 5.89 g/m*3 7.2 C 0 km/h
749 16-05-2010 05:44:04 7 C 5.89 g/m*3 7 C 0 km/h
750 16-05-2010 05:56:04 7.2 C 5.97 g/m*3 7.2 C 0 km/h
Sensor: Nr:Datum:Temp:Abs-Feuchte:Windchill:Wind:
Aussen-T/F 751 16-05-2010 06:08:04 7.4 C 6.04 g/m*3 7.4 C 0 km/h
752 16-05-2010 06:20:04 7.4 C 5.96 g/m*3 7.4 C 0 km/h
753 16-05-2010 06:32:04 7.4 C 5.96 g/m*3 7.4 C 0 km/h
754 16-05-2010 06:44:04 7.4 C 5.96 g/m*3 7.4 C 0 km/h
755 16-05-2010 06:56:05 7.5 C 6 g/m*3 7.5 C 0 km/h
756 16-05-2010 07:08:05 7.7 C 6.08 g/m*3 7.7 C 0 km/h
757 16-05-2010 07:20:05 7.8 C 6.04 g/m*3 7.8 C 0 km/h
758 16-05-2010 07:32:05 7.9 C 6.08 g/m*3 7.9 C 0 km/h
759 16-05-2010 07:44:05 7.9 C 6.08 g/m*3 7.9 C 0 km/h
760 16-05-2010 07:56:05 7.9 C 6.08 g/m*3 7.9 C 0 km/h
761 16-05-2010 08:08:05 8 C 6.04 g/m*3 8 C 0 km/h
762 16-05-2010 08:20:05 8.2 C 6.2 g/m*3 8.2 C 0 km/h
763 16-05-2010 08:32:05 8.7 C 6.14 g/m*3 8.7 C 0 km/h
764 16-05-2010 08:44:05 9.1 C 6.03 g/m*3 9.1 C 0 km/h
765 16-05-2010 08:56:05 9.6 C 6.05 g/m*3 9.6 C 0 km/h
766 16-05-2010 09:08:02 10.2 C 5.8 g/m*3 10.2 C 0 km/h
767 16-05-2010 09:20:01 10.6 C 4.98 g/m*3 10.6 C 0 km/h
768 16-05-2010 09:32:02 11 C 4.7 g/m*3 11 C 0 km/h
769 16-05-2010 09:44:02 11.3 C 4.39 g/m*3 11.3 C 0 km/h
770 16-05-2010 09:56:02 11.7 C 4.39 g/m*3 11.7 C 0 km/h
771 16-05-2010 10:08:02 11.9 C 4.24 g/m*3 11.9 C 0 km/h
772 16-05-2010 10:20:01 12.2 C 4.1 g/m*3 12.2 C 0 km/h
773 16-05-2010 10:32:02 12.4 C 4.15 g/m*3 12.4 C 0 km/h
774 16-05-2010 10:44:02 13 C 4.31 g/m*3 13 C 0 km/h
775 16-05-2010 10:56:01 13.3 C 4.16 g/m*3 13.3 C 0 km/h
Sensor: Nr:Datum:Temp:Abs-Feuchte:Windchill:Wind:
Aussen-T/F 776 16-05-2010 11:08:02 13.7 C 4.03 g/m*3 13.7 C 0 km/h
777 16-05-2010 11:20:02 14.3 C 4.05 g/m*3 14.3 C 0 km/h
778 16-05-2010 11:32:02 15.4 C 4.07 g/m*3 15.4 C 0 km/h
779 16-05-2010 11:44:02 15.4 C 3.94 g/m*3 15.4 C 0 km/h
780 16-05-2010 11:56:01 15.4 C 3.81 g/m*3 15.4 C 0 km/h
781 16-05-2010 12:08:02 15.9 C 3.52 g/m*3 15.9 C 0 km/h
782 16-05-2010 12:20:02 16.1 C 3.84 g/m*3 16.1 C 0 km/h
783 16-05-2010 12:32:02 17.9 C 3.82 g/m*3 17.9 C 0 km/h
784 16-05-2010 12:44:02 17.2 C 3.37 g/m*3 17.2 C 0 km/h
785 16-05-2010 12:56:01 16.1 C 3.43 g/m*3 16.1 C 0 km/h
786 16-05-2010 13:08:02 18.3 C 3.6 g/m*3 18.3 C 0 km/h
787 16-05-2010 13:20:02 17.3 C 3.39 g/m*3 17.3 C 0 km/h
788 16-05-2010 13:32:01 17.4 C 3.41 g/m*3 17.4 C 0 km/h
789 16-05-2010 13:44:01 18 C 3.69 g/m*3 18 C 0 km/h
790 16-05-2010 13:56:02 17.3 C 3.54 g/m*3 17.3 C 0 km/h
791 16-05-2010 14:08:01 16.7 C 3.55 g/m*3 16.7 C 0 km/h
792 16-05-2010 14:20:02 18.4 C 3.93 g/m*3 18.4 C 0 km/h
793 16-05-2010 14:32:02 18.4 C 3.3 g/m*3 18.4 C 0 km/h
794 16-05-2010 14:44:02 17.9 C 3.51 g/m*3 17.9 C 0 km/h
795 16-05-2010 14:56:02 18.2 C 3.42 g/m*3 18.2 C 0 km/h
796 16-05-2010 15:08:02 19 C 3.26 g/m*3 19 C 0 km/h
797 16-05-2010 15:20:02 19.3 C 3.32 g/m*3 19.3 C 0 km/h
798 16-05-2010 15:32:02 19.8 C 3.42 g/m*3 19.8 C 0 km/h
799 16-05-2010 15:44:02 19.1 C 3.28 g/m*3 19.1 C 0 km/h
800 16-05-2010 15:56:02 20.3 C 3.52 g/m*3 20.3 C 0 km/h
Sensor: Nr:Datum:Temp:Abs-Feuchte:Windchill:Wind:
Aussen-T/F 801 16-05-2010 16:08:02 21 C 3.66 g/m*3 21 C 0 km/h
802 16-05-2010 16:20:01 20.1 C 3.48 g/m*3 20.1 C 0 km/h
803 16-05-2010 16:32:02 20.4 C 3.54 g/m*3 20.4 C 0 km/h
804 16-05-2010 16:44:02 20 C 3.46 g/m*3 20 C 0 km/h
805 16-05-2010 16:56:02 21.2 C 3.71 g/m*3 21.2 C 0 km/h
806 16-05-2010 17:08:02 21.7 C 3.82 g/m*3 21.7 C 0 km/h
807 16-05-2010 17:20:02 21.1 C 3.69 g/m*3 21.1 C 0 km/h
808 16-05-2010 17:32:02 21.5 C 3.77 g/m*3 21.5 C 0 km/h
809 16-05-2010 17:44:02 21.4 C 3.75 g/m*3 21.4 C 0 km/h
810 16-05-2010 17:56:02 20.8 C 3.62 g/m*3 20.8 C 0 km/h
811 16-05-2010 18:08:02 20.8 C 3.62 g/m*3 20.8 C 0 km/h
812 16-05-2010 18:20:02 20 C 3.46 g/m*3 20 C 0 km/h
813 16-05-2010 18:32:02 19.5 C 3.52 g/m*3 19.5 C 0 km/h
814 16-05-2010 18:44:02 18.9 C 3.56 g/m*3 18.9 C 0 km/h
815 16-05-2010 18:56:02 19.9 C 3.44 g/m*3 19.9 C 0 km/h
816 16-05-2010 19:08:02 19.7 C 3.57 g/m*3 19.7 C 0 km/h
817 16-05-2010 19:20:03 19.5 C 3.52 g/m*3 19.5 C 0 km/h
818 16-05-2010 19:32:02 18.6 C 3.5 g/m*3 18.6 C 0 km/h
819 16-05-2010 19:44:02 18.2 C 3.89 g/m*3 18.2 C 0 km/h
820 16-05-2010 19:56:02 18.3 C 3.91 g/m*3 18.3 C 0 km/h
821 16-05-2010 20:08:02 19.3 C 4.15 g/m*3 19.3 C 0 km/h
822 16-05-2010 20:20:02 19.3 C 4.48 g/m*3 19.3 C 0 km/h
823 16-05-2010 20:32:02 18.2 C 4.51 g/m*3 18.2 C 0 km/h
824 16-05-2010 20:44:02 17 C 4.63 g/m*3 17 C 0 km/h
825 16-05-2010 20:56:02 16 C 4.5 g/m*3 16 C 0 km/h
Sensor: Nr:Datum:Temp:Abs-Feuchte:Windchill:Wind:
Aussen-T/F 826 16-05-2010 21:08:02 15.1 C 4.52 g/m*3 15.1 C 0 km/h
827 16-05-2010 21:20:02 14.6 C 4.63 g/m*3 14.6 C 0 km/h
828 16-05-2010 21:32:02 14.2 C 4.76 g/m*3 14.2 C 0 km/h
829 16-05-2010 21:44:02 13.9 C 4.92 g/m*3 13.9 C 0 km/h
830 16-05-2010 21:56:02 13.6 C 5.18 g/m*3 13.6 C 0 km/h
831 16-05-2010 22:08:02 13.2 C 5.05 g/m*3 13.2 C 0 km/h
832 16-05-2010 22:20:03 12.6 C 5.31 g/m*3 12.6 C 0 km/h
833 16-05-2010 22:33:03 12.3 C 5.32 g/m*3 12.3 C 0 km/h
834 16-05-2010 22:45:03 11.9 C 5.4 g/m*3 11.9 C 0 km/h
835 16-05-2010 22:57:03 11.8 C 5.58 g/m*3 11.8 C 0 km/h
836 16-05-2010 23:09:03 11.4 C 5.65 g/m*3 11.4 C 0 km/h
837 16-05-2010 23:21:03 11 C 5.71 g/m*3 11 C 0 km/h
838 16-05-2010 23:33:03 10.7 C 5.8 g/m*3 10.7 C 0 km/h
839 16-05-2010 23:45:03 10.7 C 5.89 g/m*3 10.7 C 0 km/h
840 16-05-2010 23:57:03 10.5 C 6.01 g/m*3 10.5 C 0 km/h

Legende:
   Min
   Max


Maximal/Minimal-Werte vom 23.02.2003 - 17.05.2020

Sensor Min Max Avg
Temp
(Aussen-T/F)
-16.4 °C
20-12-2009  01:30:01
40.4 °C
25-07-2019  16:20:00
11.1 °C

Die Daten stammen von einer Davis Vantage Pro 2 Wetter-Station und werden unter Linux mit der Software wview2wettercgi und aufbereitet. Alle Angaben erfolgen ohne Gewähr für ihre Vollständigkeit oder Richtigkeit.
Kontakt: Rainer Krienke krienke@uni-koblenz.de . Meine Webseiten an der Uni Koblenz oder privat.
Version: $Revision: 0.78 $